Lid_Strength_Index
0 0 1 1 1 1 2 2 2 2 2 2 3 3 3 3 3 3 3 3 3 3 3 3 3 2 4 7 6 3 -2 -2 3 7 8 7 7 6 8 6 6 7 7 6 6 6 6
0 1 1 1 1 1 1 1 1 2 2 2 2 3 3 3 3 3 3 3 3 3 3 3 2 2 6 10 5 2 0 2 7 9 9 7 7 5 6 7 7 6 7 6 6 6 6
0 0 1 1 1 1 1 1 1 2 2 2 2 3 3 3 3 3 3 3 3 3 3 3 2 2 6 8 4 5 4 4 4 8 9 7 6 7 6 7 5 6 9 7 7 6 7
0 0 0 1 1 1 1 1 1 2 2 2 3 3 3 3 2 3 3 3 3 3 2 2 2 4 9 4 4 5 5 5 5 6 8 7 7 7 7 5 6 8 8 12 8 7 6
0 0 0 1 1 1 1 1 1 2 2 2 2 2 2 2 3 3 3 3 3 2 2 1 5 6 8 1 5 4 5 6 6 7 6 4 8 9 8 8 10 9 13 11 10 7 7
0 0 0 1 1 1 2 2 2 2 2 2 2 2 2 3 3 3 4 3 3 3 1 1 2 8 6 6 6 5 5 6 8 8 6 7 10 10 11 12 13 12 12 11 11 8 8
1 1 1 1 1 2 1 2 2 2 2 2 2 2 3 3 3 4 4 6 5 7 6 7 8 6 5 5 4 5 5 7 8 9 11 10 11 12 10 10 8 9 11 11 9 7 9
0 0 0 1 1 2 2 2 2 2 2 2 2 3 3 3 3 4 5 9 5 4 8 5 4 5 4 5 6 7 7 9 9 11 11 12 12 9 8 8 9 9 11 11 9 7 8
0 0 1 1 1 1 1 2 2 2 2 3 3 3 3 3 4 5 6 6 4 6 9 7 5 5 4 4 6 7 7 9 10 11 11 13 10 7 8 10 10 10 11 11 10 8 8
1 1 1 1 1 1 1 2 2 2 2 2 3 3 4 4 5 5 5 6 4 5 11 9 8 6 4 5 8 5 6 7 10 10 11 11 9 9 10 10 10 13 8 8 9 11 13
2 2 2 2 1 1 2 2 2 2 2 2 2 3 4 4 6 6 5 3 3 6 17 7 8 4 4 7 8 7 5 8 9 9 10 11 10 10 10 9 9 10 7 8 9 11 12
2 2 2 2 2 2 2 2 2 2 3 3 3 4 4 5 6 4 3 4 7 11 16 9 8 8 8 8 7 6 7 8 7 10 11 10 8 9 9 9 8 9 9 10 11 12 15
3 3 3 3 3 3 3 3 3 3 3 3 4 4 5 4 6 4 4 7 11 15 8 10 11 9 10 9 8 8 9 11 12 13 14 11 10 9 9 12 10 10 14 16 16 17 16
4 4 3 3 3 3 3 3 3 3 3 4 4 5 5 4 4 4 6 10 15 11 10 9 10 10 10 10 10 10 10 11 11 12 14 14 13 10 9 10 11 11 12 15 17 17 15
3 3 3 3 3 3 3 3 4 4 4 4 5 5 4 4 3 5 9 13 13 11 8 9 10 12 12 9 10 10 11 11 10 11 13 15 13 9 9 9 9 11 13 11 14 15 16
3 3 3 3 3 3 3 4 4 4 4 5 6 7 5 3 2 7 10 13 12 9 8 8 11 11 12 11 11 12 11 10 10 9 10 12 14 11 9 8 10 10 10 14 16 17 18
4 3 3 3 3 3 3 3 4 4 4 5 7 6 4 2 5 9 12 12 10 8 7 9 10 10 11 11 11 12 10 9 9 8 10 12 13 11 11 12 12 12 13 13 14 15 16
4 3 3 3 3 3 3 2 3 4 5 5 7 9 4 5 10 11 12 12 10 9 8 9 9 9 10 10 12 11 10 9 8 8 10 10 14 14 13 10 10 12 12 14 15 16 15
3 3 3 3 3 3 3 2 3 3 4 6 8 7 4 5 12 12 10 9 9 9 9 9 9 8 9 11 12 11 9 7 7 9 10 11 14 15 13 12 12 13 12 14 14 14 14
3 3 3 3 3 2 2 2 3 2 3 5 7 10 7 7 9 10 11 9 9 7 8 7 8 8 9 11 10 11 9 8 8 8 5 7 13 13 14 13 12 12 11 12 14 14 14
3 3 3 2 2 2 2 2 2 2 3 5 7 9 8 10 9 9 10 8 9 9 7 7 8 8 9 11 11 10 10 10 8 6 10 11 12 12 11 9 9 10 10 10 12 12 13
3 2 2 2 2 2 2 1 1 2 2 5 8 8 6 8 8 10 10 10 9 8 8 9 9 7 8 10 9 11 11 13 12 11 11 11 12 11 12 9 9 10 9 9 11 12 12
2 2 2 2 2 2 1 1 1 1 2 4 4 5 6 9 10 10 10 8 8 7 6 6 7 8 8 7 6 7 8 10 10 11 11 11 12 13 12 9 10 13 11 10 10 10 11
2 2 1 2 2 2 2 1 1 1 2 2 5 6 8 11 9 9 8 7 8 7 8 6 6 7 7 5 6 7 8 9 11 10 10 12 13 12 12 11 16 11 8 8 10 9 9
2 1 1 1 1 2 2 1 0 0 1 3 4 5 6 10 8 8 8 8 7 7 7 7 6 6 6 8 9 10 11 11 11 10 11 11 12 13 13 15 12 10 8 9 10 11 8
1 1 1 1 1 2 2 1 1 0 1 3 4 3 5 8 10 6 8 8 9 9 8 7 6 6 7 9 11 12 13 12 11 11 11 10 11 11 13 15 16 11 7 6 7 13 7
1 1 1 1 1 2 2 1 1 0 0 3 4 2 4 8 6 7 9 9 8 9 9 8 8 7 8 10 11 12 12 9 13 14 14 12 12 13 14 15 12 8 7 6 14 13 7
1 1 1 1 1 1 2 1 1 0 0 2 4 2 4 6 6 5 5 7 7 9 11 9 8 8 9 11 11 12 12 11 12 12 13 13 14 14 14 15 16 7 7 11 8 7 6
1 1 1 1 1 1 2 1 1 0 0 1 4 2 1 4 6 4 4 4 4 5 9 9 9 8 8 10 10 10 11 11 12 14 10 13 11 12 12 12 8 7 7 6 5 6 6